Regional Weather Roundup
Issued by NWS Little Rock, AR

Home | Current Version | Previous Version | Graphics & Text | Print | Product List | Glossary On
Versions: 1 2 3 4 5 6 7 8 9 10 11 12 13 14 15 16 17 18 19 20 21 22 23 24 25 26 27 28 29 30 31 32 33 34 35 36 37 38 39 40 41 42 43 44 45 46 47 48 49 50
000
ASUS44 KLZK 250012
RWRLZK

WEATHER ROUNDUP FOR ARKANSAS
NATIONAL WEATHER SERVICE LITTLE ROCK AR
700 PM CDT FRI MAR 24 2017

NOTE: "FAIR" INDICATES FEW OR NO CLOUDS BELOW 12,000 FEET WITH NO
SIGNIFICANT WEATHER AND/OR OBSTRUCTIONS TO VISIBILITY.

ARZ001-003-010-029-250100-
NORTHWEST ARKANSAS

CITY           SKY/WX    TMP DP  RH WIND       PRES   REMARKS
FAYETTEVILLE   TSTM      58  55  90 SE17G31   29.79F VSB 3/4
6HR MIN TEMP:  57; 6HR MAX TEMP:  62; 6HR PCP:  1.15;

FORT SMITH     TSTM      60  56  86 S20G36    29.80R VSB 1
6HR MIN TEMP:  61; 6HR MAX TEMP:  73; 6HR PCP:  1.61;

HARRISON       LGT RAIN  61  59  93 S16       29.86F FOG
6HR MIN TEMP:  61; 6HR MAX TEMP:  72; 6HR PCP:  0.33;

BENTONVILLE    CLOUDY    57  54  88 S18G29    29.83F THUNDER
6HR MIN TEMP:  55; 6HR MAX TEMP:  66; 6HR PCP:  2.01;

ROGERS         HVY RAIN  57  55  94 S14G21    29.85F FOG
6HR MIN TEMP:  57; 6HR MAX TEMP:  67; 6HR PCP:  1.53;

SILOAM SPGS    CLOUDY    61  54  77 S5        29.80F
6HR MIN TEMP:  59; 6HR MAX TEMP:  63; 6HR PCP:  0.72;

HIGHFILL       CLOUDY    59  55  87 S14       29.81F THUNDER
6HR MIN TEMP:  59; 6HR MAX TEMP:  64; 6HR PCP:  1.36;

SPRINGDALE       N/A    N/A N/A N/A N10         N/A
$$

ARZ004-005-016-250100-
NORTH CENTRAL ARKANSAS

CITY           SKY/WX    TMP DP  RH WIND       PRES   REMARKS
BATESVILLE     CLOUDY    73  55  53 S10G21    29.94R
6HR MIN TEMP:  73; 6HR MAX TEMP:  75;

FLIPPIN        CLOUDY    64  52  63 S12G35    29.87F
6HR MIN TEMP:  64; 6HR MAX TEMP:  75; 6HR PCP:  0.12;

MTN HOME       LGT RAIN  69  56  62 SW10      29.90S
6HR MIN TEMP:  69; 6HR MAX TEMP:  74; 6HR PCP: TRACE;

$$

ARZ040-041-250100-
WEST CENTRAL ARKANSAS

CITY           SKY/WX    TMP DP  RH WIND       PRES   REMARKS
MENA           CLOUDY    64  64 100 SE8       29.82R
MOUNT IDA      LGT RAIN  66  61  84 S9G23     29.81F
6HR MIN TEMP:  65; 6HR MAX TEMP:  76; 6HR PCP:  0.41;

$$

ARZ009-017-025-026-028-250100-
NORTHEAST ARKANSAS

CITY           SKY/WX    TMP DP  RH WIND       PRES   REMARKS
CORNING        FAIR      73  59  60 S12       29.97S
JONESBORO      CLOUDY    74  57  55 S16G22    29.96S
6HR MIN TEMP:  73; 6HR MAX TEMP:  77;

NEWPORT        CLOUDY    72  58  61 S14       29.94S
6HR MIN TEMP:  72; 6HR MAX TEMP:  78;

WALNUT RIDGE   MOCLDY    72  55  56 S13       29.95S
6HR MIN TEMP:  72; 6HR MAX TEMP:  75;

$$

ARZ022-023-033-042-044-250100-
CENTRAL ARKANSAS

CITY           SKY/WX    TMP DP  RH WIND       PRES   REMARKS
LITTLE ROCK    CLOUDY    73  58  59 S13       29.91S
6HR MIN TEMP:  73; 6HR MAX TEMP:  77;

N LITTLE ROCK    N/A     74  59  59 S12G30    29.91R
6HR MIN TEMP:  72; 6HR MAX TEMP:  76;

JACKSONVILLE   MOCLDY    75  59  57 S10G17    29.91R
6HR MIN TEMP:  74; 6HR MAX TEMP:  78;

CONWAY           N/A     75  57  53 S17G28    29.87F
SEARCY         MOCLDY    74  58  57 S16       29.94R
6HR MIN TEMP:  73; 6HR MAX TEMP:  78;

HOT SPRINGS    LGT RAIN  65  64  97 NE6       29.88F FOG
6HR MIN TEMP:  66; 6HR MAX TEMP:  78; 6HR PCP:  0.17;

RUSSELLVILLE   LGT RAIN  63  59  87 VRB5      29.86S
6HR MIN TEMP:  63; 6HR MAX TEMP:  77; 6HR PCP:  0.17;

CLINTON        MOCLDY    73  57  56 SE7G17    29.90S
$$

ARZ036-250100-
EAST ARKANSAS

CITY           SKY/WX    TMP DP  RH WIND       PRES   REMARKS
WEST MEMPHIS   CLOUDY    73  60  63 S17G25    29.98R
6HR MIN TEMP:  73; 6HR MAX TEMP:  80;

$$

ARZ050-053-066-070-073-250100-
SOUTHWEST ARKANSAS

CITY           SKY/WX    TMP DP  RH WIND       PRES   REMARKS
ARKADELPHIA    CLOUDY    72  61  68 SE7       29.85F
6HR MIN TEMP:  72; 6HR MAX TEMP:  77; 6HR PCP: TRACE;

CAMDEN         CLOUDY    75  55  50 SE17G23   29.89F
TEXARKANA      HVY RAIN  65  63  93 S12       29.86R FOG
6HR MIN TEMP:  65; 6HR MAX TEMP:  78; 6HR PCP:  0.39;

EL DORADO      CLOUDY    75  59  57 SE18G25   29.91S
6HR MIN TEMP:  73; 6HR MAX TEMP:  79;

DE QUEEN       LGT RAIN  64  64 100 S13G23    29.78F
6HR MIN TEMP:  62; 6HR MAX TEMP:  76; 6HR PCP:  0.55;

$$

ARZ056-057-069-250100-
SOUTHEAST ARKANSAS

CITY           SKY/WX    TMP DP  RH WIND       PRES   REMARKS
PINE BLUFF     MOCLDY    74  58  57 S14       29.94R
6HR MIN TEMP:  74; 6HR MAX TEMP:  79;

STUTTGART      MOCLDY    75  54  46 S16       29.95R
MONTICELLO     CLOUDY    77  58  51 S15G23    29.94S
6HR MIN TEMP:  75; 6HR MAX TEMP:  78;


$$





USA.gov is the U.S. government's official web portal to all federal, state and local government web resources and services.